METEOR-M 2

Last updated on Wed Sep 23 2026 00:03:10 GMT+0000 (Coordinated Universal Time)

1 40069U 14037A 26265.63499396 .00000041 00000+0 38007-4 0 9990 2 40069 98.5242 237.9791 0006836 108.3657 251.8265 14.21484651633166
UTC large
Height (km)
Speed (km/s)
/
Latitude / Longitude
Inclination (degrees)
Orbital Period (minutes)
Azimuth
Elevation
Range (km)
Doppler Factor

Next 0 passes for location: London (51.5072 / 0.1276)

No passes found over London.
METEOR-M 2